• In Hungary
  • List of Countries
  • For 7 days
  • Water Temperature
  • Satellite Maps
  • Weather Map
  • News
  • Weather Widgets
  • user-avatar
    Login

    Hourly Weather Motyczno

    Today, 23 September, Sunday

    Time Temperature Precipitation Wind Pressure Humidity
    00:00 +12°C° 0 mm 3 mps 743 mmHg 63%
    01:00 +12°C° 0 mm 3 mps 743 mmHg 64%
    02:00 +12°C° 0.1 mm 3 mps 743 mmHg 66%
    03:00 +11°C° 0.1 mm 3 mps 743 mmHg 68%
    04:00 +11°C° 0.1 mm 3 mps 742 mmHg 71%
    05:00 +11°C° 0 mm 4 mps 742 mmHg 70%
    06:00 +12°C° 0 mm 4 mps 742 mmHg 70%
    07:00 +12°C° 0 mm 4 mps 742 mmHg 69%
    08:00 +13°C° 0 mm 5 mps 742 mmHg 64%
    09:00 +14°C° 0 mm 5 mps 742 mmHg 59%
    10:00 +15°C° 0 mm 5 mps 742 mmHg 55%
    11:00 +15°C° 0 mm 5 mps 741 mmHg 55%
    12:00 +15°C° 0 mm 5 mps 741 mmHg 55%
    13:00 +15°C° 0 mm 5 mps 741 mmHg 55%
    14:00 +15°C° 0.2 mm 4 mps 740 mmHg 61%
    15:00 +14°C° 0.2 mm 3 mps 739 mmHg 66%
    16:00 +15°C° 0.2 mm 2 mps 738 mmHg 72%
    17:00 +13°C° 1.3 mm 3 mps 737 mmHg 77%
    18:00 +13°C° 1.3 mm 3 mps 736 mmHg 82%
    19:00 +12°C° 1.3 mm 3 mps 735 mmHg 87%
    20:00 +13°C° 0.9 mm 5 mps 734 mmHg 85%
    21:00 +14°C° 0.9 mm 7 mps 732 mmHg 83%
    22:00 +13°C° 0.9 mm 8 mps 731 mmHg 82%
    23:00 +13°C° 1.7 mm 8 mps 731 mmHg 84%

    Tomorrow, 24 September, Monday

    Time Temperature Precipitation Wind Pressure Humidity
    00:00 +15°C° 1.7 mm 7 mps 730 mmHg 87%
    01:00 +15°C° 1.7 mm 7 mps 730 mmHg 89%
    02:00 +12°C° 1.3 mm 8 mps 731 mmHg 88%
    03:00 +11°C° 1.3 mm 9 mps 733 mmHg 87%
    04:00 +8°C° 1.3 mm 10 mps 734 mmHg 86%
    05:00 +8°C° 0.2 mm 9 mps 735 mmHg 85%
    06:00 +8°C° 0.2 mm 9 mps 737 mmHg 83%
    07:00 +7°C° 0.2 mm 8 mps 739 mmHg 82%
    08:00 +8°C° 0.2 mm 9 mps 739 mmHg 77%
    09:00 +10°C° 0.2 mm 9 mps 740 mmHg 72%
    10:00 +9°C° 0.2 mm 10 mps 741 mmHg 67%
    11:00 +9°C° 0.1 mm 10 mps 742 mmHg 63%
    12:00 +11°C° 0.1 mm 10 mps 742 mmHg 58%
    13:00 +11°C° 0.1 mm 10 mps 743 mmHg 53%
    14:00 +11°C° 0.1 mm 10 mps 743 mmHg 53%
    15:00 +9°C° 0.1 mm 10 mps 743 mmHg 54%
    16:00 +10°C° 0.1 mm 9 mps 743 mmHg 54%
    17:00 +8°C° 0 mm 9 mps 744 mmHg 56%
    18:00 +7°C° 0 mm 8 mps 744 mmHg 59%
    19:00 +7°C° 0 mm 8 mps 745 mmHg 61%
    20:00 +6°C° 0.3 mm 7 mps 745 mmHg 66%
    21:00 +6°C° 0.3 mm 7 mps 746 mmHg 71%
    22:00 +6°C° 0.3 mm 7 mps 746 mmHg 75%
    23:00 +5°C° 0 mm 6 mps 747 mmHg 76%

    Day after tomorrow, 25 September, Tuesday

    Time Temperature Precipitation Wind Pressure Humidity
    00:00 +5°C° 0 mm 6 mps 748 mmHg 76%
    01:00 +5°C° 0 mm 5 mps 748 mmHg 77%
    02:00 +5°C° 0 mm 5 mps 749 mmHg 78%
    03:00 +5°C° 0 mm 5 mps 749 mmHg 80%
    04:00 +4°C° 0 mm 4 mps 750 mmHg 81%
    05:00 +5°C° 0 mm 5 mps 750 mmHg 80%
    06:00 +5°C° 0 mm 5 mps 751 mmHg 79%
    07:00 +5°C° 0 mm 5 mps 752 mmHg 77%
    08:00 +5°C° 0 mm 6 mps 752 mmHg 67%
    09:00 +8°C° 0 mm 6 mps 753 mmHg 57%
    10:00 +9°C° 0 mm 6 mps 753 mmHg 47%
    11:00 +9°C° 0.1 mm 6 mps 753 mmHg 48%
    12:00 +10°C° 0.1 mm 6 mps 753 mmHg 48%
    13:00 +10°C° 0.1 mm 6 mps 754 mmHg 48%
    14:00 +10°C° 0 mm 6 mps 754 mmHg 47%
    15:00 +10°C° 0 mm 6 mps 754 mmHg 46%
    16:00 +10°C° 0 mm 5 mps 754 mmHg 45%
    17:00 +10°C° 0 mm 4 mps 754 mmHg 49%
    18:00 +8°C° 0 mm 3 mps 755 mmHg 52%
    19:00 +7°C° 0 mm 2 mps 755 mmHg 56%
    20:00 +7°C° 0 mm 2 mps 756 mmHg 57%
    21:00 +6°C° 0 mm 2 mps 756 mmHg 58%
    22:00 +6°C° 0 mm 2 mps 756 mmHg 59%
    23:00 +6°C° 0 mm 2 mps 757 mmHg 60%

    26 September, Wednesday

    Time Temperature Precipitation Wind Pressure Humidity
    00:00 +5°C° 0 mm 2 mps 757 mmHg 60%
    01:00 +5°C° 0 mm 2 mps 757 mmHg 61%
    02:00 +5°C° 0 mm 2 mps 757 mmHg 62%
    03:00 +5°C° 0 mm 2 mps 757 mmHg 63%
    04:00 +4°C° 0 mm 2 mps 756 mmHg 64%
    05:00 +5°C° 0 mm 2 mps 756 mmHg 64%
    06:00 +4°C° 0 mm 3 mps 756 mmHg 63%
    07:00 +5°C° 0 mm 3 mps 756 mmHg 63%
    08:00 +8°C° 0 mm 3 mps 756 mmHg 57%
    09:00 +10°C° 0 mm 4 mps 756 mmHg 50%
    10:00 +12°C° 0 mm 4 mps 756 mmHg 43%
    11:00 +12°C° 0 mm 4 mps 755 mmHg 41%
    12:00 +13°C° 0 mm 5 mps 754 mmHg 38%
    13:00 +14°C° 0 mm 5 mps 754 mmHg 36%
    14:00 +14°C° 0 mm 5 mps 753 mmHg 38%
    15:00 +14°C° 0 mm 5 mps 752 mmHg 41%
    16:00 +14°C° 0 mm 5 mps 752 mmHg 43%
    17:00 +13°C° 0 mm 5 mps 752 mmHg 46%
    18:00 +12°C° 0 mm 4 mps 752 mmHg 48%
    19:00 +11°C° 0 mm 4 mps 751 mmHg 51%
    20:00 +10°C° 0 mm 5 mps 751 mmHg 51%
    21:00 +10°C° 0 mm 5 mps 751 mmHg 51%
    22:00 +10°C° 0 mm 5 mps 751 mmHg 51%
    23:00 +10°C° 0 mm 5 mps 751 mmHg 51%

    27 September, Thursday

    Time Temperature Precipitation Wind Pressure Humidity
    00:00 +9°C° 0 mm 5 mps 750 mmHg 51%
    01:00 +9°C° 0 mm 5 mps 750 mmHg 51%
    02:00 +9°C° 0 mm 5 mps 749 mmHg 52%
    03:00 +8°C° 0 mm 5 mps 749 mmHg 52%
    04:00 +8°C° 0 mm 5 mps 749 mmHg 53%
    05:00 +8°C° 0 mm 5 mps 749 mmHg 53%
    06:00 +9°C° 0 mm 5 mps 749 mmHg 53%
    07:00 +9°C° 0 mm 5 mps 748 mmHg 53%
    08:00 +11°C° 0 mm 6 mps 748 mmHg 49%
    09:00 +14°C° 0 mm 6 mps 748 mmHg 45%
    10:00 +16°C° 0 mm 6 mps 748 mmHg 42%
    11:00 +17°C° 0 mm 6 mps 747 mmHg 42%
    12:00 +19°C° 0 mm 6 mps 747 mmHg 42%
    13:00 +20°C° 0 mm 6 mps 747 mmHg 41%
    14:00 +19°C° 0 mm 6 mps 746 mmHg 44%
    15:00 +19°C° 0 mm 5 mps 746 mmHg 47%
    16:00 +19°C° 0 mm 5 mps 746 mmHg 50%
    17:00 +17°C° 0 mm 5 mps 746 mmHg 54%
    18:00 +17°C° 0 mm 4 mps 745 mmHg 57%
    19:00 +14°C° 0 mm 4 mps 745 mmHg 61%
    20:00 +14°C° 0 mm 4 mps 745 mmHg 63%
    21:00 +14°C° 0 mm 4 mps 745 mmHg 64%
    22:00 +13°C° 0 mm 4 mps 745 mmHg 65%
    23:00 +13°C° 0 mm 4 mps 745 mmHg 67%

    28 September, Friday

    Time Temperature Precipitation Wind Pressure Humidity
    00:00 +13°C° 0 mm 4 mps 744 mmHg 68%
    01:00 +12°C° 0 mm 4 mps 744 mmHg 69%
    02:00 +12°C° 0 mm 4 mps 744 mmHg 70%
    03:00 +12°C° 0 mm 4 mps 743 mmHg 70%
    04:00 +12°C° 0 mm 4 mps 743 mmHg 70%
    05:00 +12°C° 0.1 mm 5 mps 743 mmHg 71%
    06:00 +12°C° 0.1 mm 5 mps 743 mmHg 72%
    07:00 +13°C° 0.1 mm 5 mps 744 mmHg 73%
    08:00 +13°C° 0.1 mm 5 mps 744 mmHg 76%
    09:00 +13°C° 0.1 mm 4 mps 744 mmHg 78%
    10:00 +12°C° 0.1 mm 4 mps 745 mmHg 80%
    11:00 +13°C° 0 mm 3 mps 745 mmHg 75%
    12:00 +13°C° 0 mm 3 mps 745 mmHg 70%
    13:00 +14°C° 0 mm 3 mps 745 mmHg 64%
    14:00 +15°C° 0 mm 2 mps 745 mmHg 61%
    15:00 +15°C° 0 mm 2 mps 745 mmHg 58%
    16:00 +15°C° 0 mm 2 mps 745 mmHg 55%
    17:00 +14°C° 0 mm 1 mps 745 mmHg 58%
    18:00 +12°C° 0 mm 1 mps 745 mmHg 62%
    19:00 +11°C° 0 mm 1 mps 745 mmHg 65%
    20:00 +11°C° 0 mm 1 mps 745 mmHg 66%
    21:00 +10°C° 0 mm 1 mps 745 mmHg 66%
    22:00 +10°C° 0 mm 1 mps 745 mmHg 67%
    23:00 +10°C° 0 mm 1 mps 745 mmHg 67%
    Show more